TimePST,TemperatureF,Dew PointF,Humidity,Sea Level PressureIn,VisibilityMPH,Wind Direction,Wind SpeedMPH,Gust SpeedMPH,PrecipitationIn,Events,Conditions,WindDirDegrees,DateUTC
12:53 AM,39.9,35.1,83,29.76,10.0,South,4.6,-,N/A,,Clear,180,2013-11-17 08:53:00
1:53 AM,41.0,35.1,79,29.79,10.0,South,4.6,-,N/A,,Clear,170,2013-11-17 09:53:00
2:53 AM,41.0,36.0,82,29.80,10.0,SSE,4.6,-,N/A,,Clear,160,2013-11-17 10:53:00
3:53 AM,41.0,36.0,82,29.80,10.0,SSE,4.6,-,N/A,,Overcast,150,2013-11-17 11:53:00
4:53 AM,42.1,37.9,85,29.80,10.0,SE,10.4,-,0.00,Rain,Light Rain,140,2013-11-17 12:53:00
5:37 AM,42.8,37.4,81,29.76,10.0,SSE,9.2,-,0.00,Rain,Light Rain,150,2013-11-17 13:37:00
5:53 AM,43.0,37.9,82,29.78,10.0,SSE,6.9,-,0.00,,Overcast,150,2013-11-17 13:53:00
6:53 AM,43.0,37.9,82,29.79,10.0,SSE,10.4,-,0.01,,Overcast,160,2013-11-17 14:53:00
7:53 AM,45.0,37.0,74,29.79,10.0,SSE,13.8,19.6,N/A,,Overcast,150,2013-11-17 15:53:00
8:53 AM,46.0,39.0,76,29.80,10.0,SSE,13.8,23.0,N/A,,Overcast,150,2013-11-17 16:53:00
9:02 AM,46.4,39.2,76,29.78,10.0,SE,13.8,-,N/A,,Overcast,140,2013-11-17 17:02:00
9:34 AM,46.4,39.2,76,29.78,10.0,SE,16.1,24.2,N/A,,Overcast,140,2013-11-17 17:34:00
9:53 AM,46.9,39.9,77,29.81,10.0,SSE,15.0,24.2,N/A,,Overcast,160,2013-11-17 17:53:00
10:08 AM,46.4,41.0,81,29.79,9.0,SSE,17.3,25.3,N/A,,Overcast,160,2013-11-17 18:08:00
10:53 AM,46.9,41.0,80,29.83,10.0,SSE,11.5,21.9,N/A,,Overcast,160,2013-11-17 18:53:00
11:53 AM,46.0,43.0,89,29.83,4.0,SSE,11.5,-,0.02,Rain,Light Rain,150,2013-11-17 19:53:00
12:00 PM,46.4,42.8,87,29.79,7.0,SSE,12.7,-,0.00,Rain,Light Rain,150,2013-11-17 20:00:00
12:53 PM,46.9,43.0,86,29.81,10.0,SSE,12.7,-,0.00,,Mostly Cloudy,160,2013-11-17 20:53:00
1:53 PM,50.0,39.9,68,29.81,10.0,SSE,10.4,17.3,N/A,,Clear,160,2013-11-17 21:53:00
2:53 PM,50.0,39.9,68,29.81,10.0,South,9.2,-,N/A,,Partly Cloudy,170,2013-11-17 22:53:00
3:53 PM,48.9,39.9,71,29.84,10.0,South,8.1,18.4,N/A,,Overcast,170,2013-11-17 23:53:00
4:53 PM,48.9,39.9,71,29.85,10.0,South,8.1,-,N/A,,Overcast,170,2013-11-18 00:53:00
5:42 PM,48.2,42.8,82,29.85,8.0,South,6.9,-,0.01,Rain,Light Rain,180,2013-11-18 01:42:00
5:53 PM,46.9,43.0,86,29.87,6.0,South,5.8,-,0.01,Rain,Light Rain,170,2013-11-18 01:53:00
6:53 PM,46.0,42.1,86,29.87,10.0,South,6.9,-,0.03,Rain,Light Rain,170,2013-11-18 02:53:00
7:45 PM,46.4,42.8,87,29.84,10.0,South,4.6,-,0.00,,Overcast,170,2013-11-18 03:45:00
7:53 PM,46.9,42.1,83,29.87,10.0,SSE,5.8,-,0.00,,Overcast,160,2013-11-18 03:53:00
8:53 PM,46.9,42.1,83,29.88,8.0,South,5.8,-,0.02,Rain,Light Rain,190,2013-11-18 04:53:00
9:53 PM,46.0,42.1,86,29.88,10.0,SSE,4.6,-,0.00,,Overcast,150,2013-11-18 05:53:00
10:53 PM,46.0,42.1,86,29.90,10.0,SSE,5.8,-,0.01,,Overcast,160,2013-11-18 06:53:00
11:39 PM,46.4,42.8,87,29.88,10.0,South,4.6,-,0.00,Rain,Light Rain,170,2013-11-18 07:39:00
11:53 PM,46.9,43.0,86,29.91,10.0,South,4.6,-,0.00,Rain,Light Rain,190,2013-11-18 07:53:00